This demonstration page uses our WeatherBlox Daily Observations layout. Learn more.

41.55636, -103.73856

Hourly Observations for January 8, 2019

Temp ( °F °C ) Dew Point ( °F °C ) Humidity (%) Winds ( mph kmh ) Pressure ( in mb ) Visibility ( mi km ) Precip ( " mm )
12:53 am 00:53 Clear 24 -4.4 10 -12.2 55 55 WNW 3 6 30.18 1022 10 16.09344 0 0
1:53 am 01:53 Clear 20 -6.7 9 -12.8 62 62 NW 7 11 30.21 1023 10 16.09344 0 0
2:53 am 02:53 Clear 27 -2.8 9 -12.8 46 46 NW 14 22 30.21 1023 10 16.09344 0 0
3:53 am 03:53 Clear 25 -3.9 7 -13.9 46 46 WNW 6 9 30.24 1024 10 16.09344 0 0
4:53 am 04:53 Clear 25 -3.9 6 -14.4 44 44 NW 3 6 30.27 1025 10 16.09344 0 0
5:53 am 05:53 Clear 24 -4.4 7 -13.9 48 48 NW 9 15 30.33 1027 10 16.09344 0 0
6:53 am 06:53 Clear 19 -7.2 7 -13.9 59 59 NW 8 13 30.36 1028 10 16.09344 0 0
7:53 am 07:53 Sunny 23 -5 7 -13.9 50 50 WNW 6 9 30.39 1029 10 16.09344 0 0
8:53 am 08:53 Sunny 31 -0.6 8 -13.3 38 38 WNW 7 11 30.42 1030 10 16.09344 0 0
9:53 am 09:53 Sunny 35 1.7 8 -13.3 32 32 W 8 13 30.45 1031 10 16.09344 0 0
10:53 am 10:53 Sunny 43 6.1 5 -15 21 21 NW 14 22 30.42 1030 10 16.09344 0 0
11:53 am 11:53 Sunny 45 7.2 6 -14.4 20 20 WNW 18 30 30.39 1029 10 16.09344 0 0
12:53 pm 12:53 Sunny 46 7.8 5 -15 18 18 NW 17 28 30.39 1029 10 16.09344 0 0
1:53 pm 13:53 Sunny 47 8.3 2 -16.7 15 15 NW 14 22 30.42 1030 10 16.09344 0 0
2:40 pm 14:40 Sunny 45 7.2 5 -15 19 19 N 10 17 30.36 1028 10 16.09344 0 0
2:53 pm 14:53 Sunny 44 6.7 6 -14.4 21 21 N 12 19 30.42 1030 10 16.09344 0 0
3:53 pm 15:53 Sunny 41 5 7 -13.9 24 24 NE 8 13 30.45 1031 10 16.09344 0 0
4:53 pm 16:53 Clear 28 -2.2 5 -15 37 37 NNE 10 17 30.5 1033 10 16.09344 0 0
5:53 pm 17:53 Clear 23 -5 6 -14.4 48 48 NE 7 11 30.53 1034 10 16.09344 0 0
6:53 pm 18:53 Clear 20 -6.7 5 -15 52 52 E 6 9 30.56 1035 10 16.09344 0 0
7:53 pm 19:53 Clear 20 -6.7 6 -14.4 55 55 ESE 3 6 30.56 1035 10 16.09344 0 0
8:53 pm 20:53 Clear 16 -8.9 6 -14.4 65 65 NE 3 6 30.56 1035 10 16.09344 0 0
9:53 pm 21:53 Clear 15 -9.4 7 -13.9 70 70 NE 5 7 30.59 1036 10 16.09344 0 0
10:53 pm 22:53 Clear 15 -9.4 7 -13.9 70 70 E 5 7 30.53 1034 10 16.09344 0 0
11:53 pm 23:53 Clear 16 -8.9 7 -13.9 67 67 S 3 6 30.53 1034 10 16.09344 0 0

Powered by AerisWeather